#timestamp,LO_Frequency,Hit,StdDev 
1517421615.9,286047000.8,N
1517421635.7,286047000.0,N
1517421655.6,286047000.6,N
1517421675.4,286046998.7,N
1517421695.2,286046998.9,N
1517421715.1,286046998.2,N
1517421716.0,286046998.2,N
1517421735.8,286046998.2,N
1517421755.7,286047000.0,N
1517421775.5,286047000.4,N
1517421795.3,286047000.8,N
1517421815.2,286047000.7,N
1517421835.0,286047002.4,N
1517421835.9,286047002.4,N
1517421855.8,286047002.4,N
1517421875.6,286047002.8,N
1517421895.4,286047001.1,N
1517421915.3,286047000.5,N
1517421935.1,286047001.0,N
1517421955.8,286046998.3,N
1517421975.7,286047000.0,N
1517421995.5,286047000.3,N
1517422015.4,286047002.4,N
1517422035.2,286046999.9,N
1517422055.0,286047002.2,N
1517422055.9,286047002.2,N
1517422075.8,286047004.1,N
1517422095.6,286047003.7,N
1517422115.4,286047001.3,N
1517422135.4,286047002.5,N
1517422155.2,286047000.1,N
1517422175.1,286047000.9,N
1517422176.0,286047000.9,N
1517422195.8,286047001.1,N
1517422215.6,286047000.3,N
1517422235.5,286047001.2,N
1517422255.3,286047000.3,N
1517422275.2,286046999.9,N
1517422295.9,286046999.9,N
1517422315.7,286047000.6,N
1517422335.6,286046999.9,N
1517422355.4,286047000.3,N
1517422375.3,286046998.1,N
1517422395.1,286047000.2,N
1517422396.0,286047000.2,N
1517422415.8,286047001.2,N
1517422435.7,286046998.8,N
1517422455.5,286046998.7,N
1517422475.3,286047000.4,N
1517422495.2,286047002.8,N
1517422515.0,286047000.4,N
1517422515.9,286047000.4,N
1517422535.8,286047002.5,N
1517422555.6,286047002.5,N
1517422575.4,286047000.2,N
1517422595.3,286047002.7,N
1517422615.1,286046998.2,N
1517422635.9,286046998.6,N
1517422655.7,286046998.4,N
1517422675.5,286046998.5,N
1517422695.4,286046998.2,N
1517422715.2,286046998.1,N
1517422735.0,286046999.9,N
1517422736.0,286046999.9,N
1517422755.8,286047002.5,N
1517422775.6,286047001.4,N
1517422795.5,286047001.9,N
1517422815.5,286047002.6,N
1517422835.4,286047002.5,N
1517422855.2,286047000.0,N
1517422875.0,286047000.9,N
1517422875.9,286047000.9,N
1517422895.8,286047001.0,N
1517422915.6,286047000.8,N
1517422935.4,286046998.6,N
1517422955.3,286046998.3,N
1517422975.1,286046998.9,N
1517422995.9,286046998.1,N
1517423015.7,286046998.5,N
1517423035.5,286047000.9,N
1517423055.4,286047001.2,N
1517423075.2,286047001.0,N
1517423095.0,286047000.8,N
1517423095.9,286047000.8,N
1517423115.8,286046998.3,N
1517423135.6,286046998.8,N
1517423155.5,286046996.6,N
1517423175.3,286046996.5,N
1517423195.2,286046996.5,N
1517423215.9,286046998.0,N
1517423235.7,286046996.9,N
1517423255.6,286046997.1,N
1517423275.4,286046997.6,N
1517423295.2,286046995.0,N
1517423315.1,286046997.3,N
1517423316.0,286046997.3,N
1517423335.8,286046995.8,N
1517423355.7,286046996.2,N
1517423375.5,286046995.1,N
1517423395.3,286046995.2,N
1517423415.2,286046997.9,N
1517423435.0,286046998.0,N
1517423435.9,286046998.0,N
1517423455.8,286046996.6,N
1517423475.6,286046997.2,N
1517423495.4,286046998.0,N
1517423515.3,286046995.1,N
1517423535.1,286046995.9,N
1517423555.9,286046995.7,N
1517423575.7,286046996.0,N
1517423595.5,286046996.2,N
1517423615.4,286046996.2,N
1517423635.2,286046995.1,Y
1517423655.1,286046999.3,P
1517423656.0,286046999.3,N
1517423675.8,286046996.5,P
1517423695.6,286046997.2,N
1517423715.5,286046996.6,N
1517423735.3,286046997.0,N
1517423755.2,286046996.5,Y
1517423775.9,286046998.8,P
1517423795.7,286046999.0,N
1517423815.6,286046998.6,N
1517423835.4,286046996.8,Y
1517423855.3,286046996.9,P
1517423875.1,286046996.5,P
1517423876.0,286046996.5,P
1517423895.8,286046999.4,N
1517423915.7,286046999.2,N
1517423935.5,286046999.1,N
1517423955.3,286046997.1,N
1517423975.2,286046999.5,N
1517423995.0,286046999.0,N
1517423995.9,286046999.0,N
1517424015.8,286046998.6,N
1517424035.6,286046998.4,N
1517424055.4,286046998.8,N
1517424075.3,286047000.7,N
1517424095.1,286046998.3,N
1517424115.8,286046999.1,N
1517424135.7,286046998.4,N
1517424155.5,286046997.0,N
1517424175.4,286046996.8,N
1517424195.2,286046998.0,N
1517424215.0,286046997.5,N
1517424215.9,286046997.5,N
1517424235.8,286046997.7,N
1517424255.6,286046996.6,Y
1517424275.5,286046998.1,P
1517424295.3,286046998.4,P
1517424315.1,286046998.9,P
1517424335.9,286046996.5,Y
1517424355.7,286046998.4,P
1517424375.5,286046996.5,P
1517424395.4,286046998.7,N
1517424415.2,286046999.1,N
1517424435.1,286046999.2,N
1517424436.0,286046999.2,N
1517424455.8,286046998.9,N
1517424475.6,286046999.4,N
1517424495.5,286046996.9,Y
1517424515.3,286046998.6,P
1517424535.2,286047000.6,P
1517424555.9,286047000.3,N
1517424575.7,286046998.5,N
1517424595.6,286047001.1,N
1517424615.4,286046998.2,N
1517424635.2,286046998.1,N
1517424655.1,286046998.1,N
1517424656.0,286046998.1,N
1517424675.8,286046998.8,N
1517424695.7,286046996.9,N
1517424715.5,286046997.1,N
1517424735.3,286046997.4,N
1517424755.2,286046997.1,N
1517424775.0,286046999.2,N
1517424775.9,286046999.2,N
1517424795.7,286046999.6,N
1517424815.6,286046996.9,N
1517424835.4,286046998.7,N
1517424855.3,286046999.4,N
1517424875.1,286046997.0,N
1517424876.0,286046997.0,N
1517424895.8,286046997.8,N
1517424915.7,286046999.1,N
1517424935.5,286046997.3,N
1517424955.4,286046999.5,N
1517424975.2,286046999.1,N
1517424995.0,286046998.8,N
1517424995.9,286046998.8,N
1517425015.8,286046999.4,N
1517425035.6,286046998.8,N
1517425055.4,286047000.8,N
1517425075.3,286046998.9,N
1517425095.1,286046998.7,N
1517425115.9,286046998.7,N
1517425135.7,286046998.9,N
1517425155.5,286046998.9,N
1517425175.4,286046998.5,N
1517425195.2,286047000.4,N
